Regional Weather Roundup
Issued by NWS

Home | Current Version | Previous Version | Graphics & Text | Print | Product List | Glossary On
Versions: 1 2 3 4 5 6 7 8 9 10 11 12 13 14 15 16 17 18 19 20 21 22 23 24 25 26 27 28 29 30 31 32 33 34 35 36 37 38 39 40 41 42 43 44 45 46 47 48 49 50
862
ASUS43 KMPX 132201
RWRMN
WEATHER ROUNDUP FOR MINNESOTA
NATIONAL WEATHER SERVICE TWIN CITIES/CHANHASSEN MN
400 PM CST WED DEC 13 2017


NOTE: "FAIR" INDICATES FEW OR NO CLOUDS BELOW 12,000 FEET WITH NO
SIGNIFICANT WEATHER AND/OR OBSTRUCTIONS TO VISIBILITY. N/A MEANS
CURRENT SKY AND/OR WEATHER CONDITIONS ARE NOT AVAILABLE.

MNZ060>063-068>070-132300-
   Twin Cities Metro

CITY           SKY/WX    TMP DP  RH WIND       PRES   REMARKS
TWIN CITIES    CLOUDY    24  18  77 N16G24    29.72R WCI  11
ST PAUL        CLOUDY    24  18  77 NW20      29.73R WCI  10
CRYSTAL        CLOUDY    24  14  65 NW16G25   29.72R WCI  11
BLAINE         FLURRIES  25  18  74 NW17      29.71R WCI  11
LAKEVILLE      CLOUDY    23  18  80 N12G20    29.70R WCI  12
EDEN PRAIRIE   CLOUDY    25  17  72 NW21      29.72R WCI  11
SOUTH ST PAUL  CLOUDY    25  18  74 N15G22    29.71R WCI  12
LAKE ELMO      CLOUDY    25  19  80 NW13      29.71R WCI  13
$$
MNZ001>005-007-008-013>017-022>024-027-028-132300-
   Northwest Minnesota

CITY           SKY/WX    TMP DP  RH WIND       PRES   REMARKS
BEMIDJI        FLURRIES  15  11  83 NW12      29.81R WCI   2
HALLOCK        CLOUDY    19  16  86 N17       29.91R WCI   4
ROSEAU         CLOUDY    16  10  79 NW9       29.88R WCI   4
WARROAD        CLEAR     14   9  79 N3        29.88R
CROOKSTON      FLURRIES  21  18  86 N23       29.90R WCI   5
FOSSTON        FLURRIES  16  12  86 N13       29.85R WCI   2
DETROIT LAKES  FLURRIES  21  19  93 N17       29.83R WCI   7
MOORHEAD       CLOUDY    23  19  86 N15       29.89R WCI  10
PARK RAPIDS    CLOUDY    18  12  77 N9        29.79R WCI   7
MAHNOMEN       FLURRIES  19  15  83 N15       29.83R WCI   5
$$
MNZ006-009>011-018-025>026-132300-
   North Central Minnesota

CITY           SKY/WX    TMP DP  RH WIND       PRES   REMARKS
BAUDETTE       CLEAR     13   7  77 NW7       29.82R WCI   3
FLAG ISLAND    CLEAR     12   7  79 N7        29.86R WCI   2
INTL FALLS     MOCLDY    17  11  77 N3        29.80R
WASKISH        CLOUDY    18  12  79 N5        29.82R WCI  11
BIG FORK       CLOUDY    19  14  79 VRB3      29.77R
LONGVILLE      LGT SNOW  18  12  79 CALM      29.79R
GRAND RAPIDS   FLURRIES  20  15  81 N9        29.78R WCI   9
CRANE LAKE     CLOUDY    16  12  86 N3        29.81R
ORR            CLOUDY    18  10  73 CALM      29.75R
COOK           CLOUDY    18  12  79 NE3       29.76R
WALKER         CLOUDY    16  11  83 N7        29.80R WCI   6
$$
MNZ012-019>021-037-132300-
   Northeast Minnesota

CITY           SKY/WX    TMP DP  RH WIND       PRES   REMARKS
DULUTH         LGT SNOW  21  17  84 N10       29.71R FOG     WCI  10
ELY            CLOUDY    16  12  86 NE6       29.75R WCI   7
HIBBING        CLOUDY    19  12  74 N9        29.75R WCI   8
EVELETH        MOCLDY    17  11  75 N3        29.75R
DULUTH HARBOR  LGT SNOW  28  23  80 NE14      29.76R WCI  17
TWO HARBORS    FLURRIES  27  19  74 N7        29.72R WCI  19
SILVER BAY     CLOUDY    23  18  80 NE6       29.72R WCI  16
GRAND MARAIS     N/A     16   7  67 N14G23    29.77R WCI   2
G MARAIS ARPRT FLURRIES   9   1  72 N13       29.69R WCI  -7
$$
MNZ029>031-032-039>041-046>048-054>057-064-132300-
   West Central Minnesota

CITY           SKY/WX    TMP DP  RH WIND       PRES   REMARKS
FERGUS FALLS   MIX PCPN  23  19  86 N13G29    29.87R WCI  11
WHEATON        CLOUDY    27  23  86 N17G24    29.87R WCI  14
MORRIS         CLOUDY    27  23  86 N22G31    29.82R WCI  12
ALEXANDRIA     FLURRIES  23  17  78 N23G31    29.79R WCI   7
ELBOW LAKE     CLOUDY    23  22  93 NW18      29.84R WCI   9
WADENA         FLURRIES  19  16  86 N10       29.79R WCI   8
GLENWOOD       CLOUDY    25  19  80 NW21      29.78R WCI  10
APPLETON       CLOUDY    30  25  80 N16G22    29.83R WCI  19
BENSON         CLOUDY    27  21  80 N20G28    29.82R WCI  13
ORTONVILLE     CLOUDY    30  27  86 NW10G18   29.83R WCI  21
MADISON        CLOUDY    34  28  80 N16       29.83R WCI  23
WILLMAR        CLOUDY    28  21  74 NW23      29.79R WCI  14
$$
MNZ033>034-036-042>043-049>051-058-059-132300-
   Central Minnesota

CITY           SKY/WX    TMP DP  RH WIND       PRES   REMARKS
ST CLOUD       FLURRIES  22  16  78 N14       29.76R WCI   9
SAUK CENTRE    FLURRIES  23  18  83 NW16G23   29.78R WCI   9
PAYNESVILLE    CLOUDY    25  22  89 N13G20    29.77R WCI  13
AITKIN         FLURRIES  18  12  79 NW8G16    29.74R WCI   7
PINE RIVER     FLURRIES  16  10  79 N9        29.83R WCI   4
BRAINERD       LGT SNOW  19  13  77 N10       29.77R WCI   7
STAPLES        FLURRIES  18  14  86 N9        29.78R WCI   6
LONG PRAIRIE   LGT SNOW  21  19  93 NW10      29.77R WCI  10
LITTLE FALLS   LGT SNOW  21  12  68 NW7       29.78R WCI  13
LITCHFIELD     CLOUDY    27  23  86 NW15G21   29.77R WCI  15
BUFFALO        CLOUDY    24  18  77 NW12G22   29.77R WCI  13
MAPLE LAKE     CLOUDY    24  21  88 N12G21    29.77R WCI  13
HUTCHINSON     CLOUDY    27  22  84 NW18G29   29.76R WCI  13
$$
MNZ037-044-045-052-053-132300-
   East Central Minnesota

CITY           SKY/WX    TMP DP  RH WIND       PRES   REMARKS
PRINCETON      FLURRIES  23  18  80 NW14      29.75R WCI  11
MORA           FLURRIES  21  18  86 NW13G21   29.76R WCI   9
CAMBRIDGE      FLURRIES  25  16  68 NW12G18   29.74R WCI  14
RUSH CITY      CLOUDY    23  18  80 NW8       29.73R WCI  14
MOOSE LAKE     CLOUDY    27  19  74 N3        29.72R
HINCKLEY       FLURRIES  27  19  74 N9G18     29.74R WCI  17
CLOQUET        FLURRIES  21  18  86 N7        29.72R WCI  13
MCGREGOR       CLOUDY    23  18  80 NW7       29.75R WCI  15
$$
MNZ071>073-080-081-089-090-097-098-132300-
   Southwest Minnesota

CITY           SKY/WX    TMP DP  RH WIND       PRES   REMARKS
MONTEVIDEO     CLOUDY    28  25  86 N21G29    29.81R WCI  15
GRANITE FALLS  CLOUDY    32  25  74 NW28G37   29.81R WCI  18
CANBY          CLOUDY    33  28  82 W18G25    29.84R WCI  22
MARSHALL       CLOUDY    32  25  75 N28       29.80R WCI  18
REDWOOD FALLS  CLOUDY    30  21  69 NW18G37   29.78R WCI  18
OLIVIA         CLOUDY    30  23  74 NW23G32   29.77R WCI  17
PIPESTONE      CLOUDY    32  27  80 N12G17    29.80R WCI  23
WINDOM           N/A     30  18  59 NW35G52   29.75R WCI  14
WORTHINGTON    CLOUDY    31  27  85 NW24G30   29.79R WCI  17
JACKSON        CLOUDY    32  23  69 MISG      29.75R
SLAYTON        CLOUDY    31  27  84 NW21G30   29.78R WCI  18
$$
MNZ065>067-074>077-082>085-091>093-132300-
   South Central Minnesota

CITY           SKY/WX    TMP DP  RH WIND       PRES   REMARKS
MANKATO        FLURRIES  27  22  81 NW29G35   29.72R WCI  11
NEW ULM        CLOUDY    28  21  74 NW26G37   29.75R WCI  13
ST JAMES       CLOUDY    30  25  80 NW30G38   29.76R WCI  15
GLENCOE        CLOUDY    28  23  83 NW14G21   29.75R WCI  16
FARIBAULT      CLOUDY    25  19  80 NW21G26   29.71R WCI  10
OWATONNA       CLOUDY    25  21  86 NW20      29.68R WCI  11
WASECA         CLOUDY    27  21  80 N17G24    29.72R WCI  14
$$
MNZ078>079-086>088-094>096-132300-
   Southeast Minnesota

CITY           SKY/WX    TMP DP  RH WIND       PRES   REMARKS
ROCHESTER      CLOUDY    22  18  85 N24G32    29.63R WCI   5
RED WING       CLOUDY    25  16  68 NW9G20    29.68R WCI  15
STANTON        CLOUDY    26  19  76 NW16      29.69R WCI  13
DODGE CENTER   CLOUDY    23  18  80 NW18G26   29.65R WCI   9
WINONA           N/A     27  18  69 NW18G24   29.65R WCI  13
AUSTIN         CLOUDY    27  21  80 N26G33    29.64R WCI  11
PRESTON        CLOUDY    23  17  77 N16G24    29.62R WCI   9
$$
ABBREVIATIONS USED IN REMARKS
   TC - TEMPERATURES IN CELSIUS
  WCI - WIND CHILL INDEX
   HX - HEAT INDEX
  VSB - VISIBILITY
$$




USA.gov is the U.S. government's official web portal to all federal, state and local government web resources and services.